Lapse_Rate
6.5 6.5 6.5 6.5 6.5 6.5 6.5 6.5 6.5 6.5 6.5 6.5 6.5 6.5 6.6 7.0 7.3 7.0 6.5 7.2 7.3 6.8 5.8 3.0 2.8 2.0 1.8 1.9 2.7 5.1 5.1 5.1 5.0 5.5 5.5 6.0 6.4 6.8 7.3 7.2 7.3 7.4 6.8 6.3
6.5 6.5 6.5 6.5 6.5 6.5 6.5 6.5 6.5 6.5 6.5 6.5 6.8 7.0 6.7 6.9 7.1 7.1 6.9 7.2 6.0 7.1 5.8 5.4 4.2 3.3 2.3 1.1 0.6 0.7 1.0 1.2 1.4 2.0 2.3 2.4 2.6 4.2 5.2 5.4 5.8 5.9 6.5 7.2
6.5 6.5 6.5 6.5 6.5 6.5 6.5 6.5 6.5 6.5 6.5 6.5 6.5 6.5 6.7 6.8 7.0 7.0 6.9 6.0 5.5 5.3 5.0 5.2 5.2 4.5 2.4 1.8 0.7 -0.4 -0.9 0.5 -0.1 0.0 0.3 0.5 1.1 1.2 1.0 1.2 2.1 2.7 3.5 4.3
6.5 6.5 6.5 6.5 6.5 6.5 6.5 6.5 6.5 6.5 6.5 6.5 6.7 6.9 6.0 7.1 6.7 5.9 5.1 4.3 3.9 2.0 1.8 3.0 4.5 4.3 3.3 1.3 -0.6 -1.5 -1.1 1.6 -0.5 -1.1 -0.8 -0.3 0.1 -0.1 -0.3 0.4 0.9 1.0 -1.0 -1.4
6.5 6.5 6.5 6.5 6.5 6.5 6.5 6.5 6.5 6.5 6.5 6.7 7.1 7.1 6.7 6.6 6.6 5.3 4.9 4.5 3.6 2.5 2.0 0.6 1.1 2.5 2.1 1.5 -0.6 -0.4 -0.4 0.1 0.7 -0.1 -0.3 -0.7 -0.9 -0.9 -0.7 0.5 0.2 -1.0 -2.0 -2.9
6.5 6.5 6.5 6.5 6.5 6.9 6.5 6.5 6.5 6.7 6.5 6.5 6.8 6.5 6.5 6.0 5.0 4.8 5.0 4.7 3.4 2.7 1.7 1.1 1.4 1.9 1.6 2.0 0.9 1.1 1.5 0.8 1.9 0.2 -1.0 -1.4 -1.6 -1.3 -0.4 -0.0 0.2 -0.4 -1.4 -2.3
6.5 6.5 6.5 6.5 6.6 7.0 6.5 6.5 6.8 7.1 7.0 6.8 6.5 6.7 6.6 5.4 5.1 4.2 5.7 4.8 4.4 2.4 1.0 1.5 2.4 3.1 2.5 2.4 1.5 1.4 2.0 1.6 0.7 0.3 -0.3 -1.0 -0.9 -0.7 0.1 0.7 0.6 0.4 -0.5 -1.0
6.5 6.5 6.5 6.8 6.7 6.5 6.6 7.0 7.1 7.2 7.2 7.0 6.7 6.3 6.2 4.8 3.8 4.4 4.0 4.3 4.3 3.2 2.5 2.6 2.9 3.7 3.6 2.9 3.6 3.3 2.1 0.9 0.2 -0.2 0.2 0.2 -0.2 -0.3 0.1 0.4 0.9 1.1 1.8 1.4
6.5 6.5 6.9 7.1 6.9 7.0 7.1 7.0 6.9 7.0 6.9 6.5 5.9 5.3 4.3 4.0 4.5 4.2 4.3 4.3 3.3 3.2 3.3 2.8 2.9 3.1 3.7 4.8 4.8 4.0 2.9 1.6 0.8 0.6 0.7 1.0 0.6 0.8 1.1 1.3 1.3 1.0 1.1 1.4
6.5 6.5 6.7 7.1 7.0 6.9 6.6 6.2 6.3 6.6 6.1 5.6 5.4 5.2 4.7 4.6 4.1 5.1 5.2 5.3 5.3 3.9 3.7 3.4 2.8 2.0 2.8 4.1 4.7 4.2 3.4 3.0 3.0 2.2 2.2 1.7 1.5 1.8 1.8 1.9 2.0 2.7 3.1 2.9
6.5 6.6 7.1 7.1 6.9 6.6 6.2 6.4 5.9 5.3 6.4 6.6 6.0 6.5 6.5 6.8 7.2 6.7 5.1 5.2 5.4 4.9 4.0 3.1 2.9 2.1 2.1 2.4 4.2 4.2 3.7 3.5 3.1 3.1 2.9 2.0 1.4 2.4 2.9 3.1 3.6 3.4 3.5 3.4
6.5 6.8 6.8 6.9 6.7 5.8 5.3 5.2 5.5 7.0 6.5 6.2 6.6 6.9 7.0 7.1 5.9 6.0 5.8 5.2 4.1 4.1 3.9 3.5 3.2 2.2 1.7 2.1 3.0 4.1 3.8 3.2 2.8 2.9 2.7 3.0 3.1 2.0 2.0 2.3 2.5 3.0 3.5 3.5
7.1 6.7 6.3 6.4 6.3 6.3 6.0 6.0 6.0 5.6 7.1 6.2 6.7 6.2 5.8 6.4 6.3 5.7 4.5 3.8 3.2 3.3 3.3 3.1 2.4 1.4 0.9 1.1 1.4 1.2 1.7 2.2 2.5 2.3 2.4 2.4 2.0 2.2 2.2 1.7 1.5 1.0 1.8 2.7
6.8 6.9 6.7 6.7 7.2 7.4 6.8 6.0 5.8 5.7 6.1 5.6 5.2 5.1 4.5 4.7 4.6 4.4 4.2 4.4 4.0 3.4 3.2 2.9 2.0 0.9 1.0 1.1 0.8 0.3 0.9 0.4 1.8 1.6 1.7 1.6 1.5 1.1 1.2 1.4 1.2 0.2 0.1 1.0
7.5 7.3 7.1 6.7 6.4 6.6 7.5 7.3 6.6 7.2 7.1 6.1 5.4 4.8 4.5 3.5 3.0 3.2 4.2 4.3 4.2 3.1 2.5 2.4 2.0 1.7 2.1 2.4 1.8 1.6 2.3 1.6 1.4 1.3 1.1 1.0 1.4 1.3 1.1 1.0 0.6 0.5 1.3 0.7
7.4 7.6 7.4 6.8 6.3 6.2 6.4 7.2 7.4 6.8 5.4 5.1 4.7 4.3 4.0 3.6 3.2 2.8 2.5 2.3 2.1 1.1 1.4 0.8 1.1 1.1 1.6 2.0 2.7 2.9 2.5 1.6 2.1 2.5 2.3 2.2 1.9 1.7 1.3 0.9 0.6 0.3 0.1 -0.1
7.4 7.3 7.6 7.4 7.5 7.4 6.9 6.5 5.8 5.2 4.7 4.5 4.3 4.1 3.9 3.5 2.9 2.3 1.8 1.9 1.5 1.3 1.5 1.3 0.7 0.5 0.6 0.5 2.3 3.2 3.4 3.0 2.1 3.1 2.8 2.7 2.5 2.1 1.8 1.6 1.1 0.7 0.0 -0.6
6.9 7.4 7.5 7.4 7.8 7.7 7.8 7.3 6.1 5.5 4.7 4.1 3.3 2.7 2.3 2.5 2.2 1.8 1.5 2.0 2.2 1.9 1.5 1.1 1.7 1.5 1.8 1.8 2.6 3.4 3.8 3.7 3.4 3.1 3.1 3.0 2.9 2.9 2.6 2.5 2.3 2.2 2.1 1.2
7.2 7.4 7.8 7.1 6.3 6.0 5.7 5.1 4.8 4.1 3.3 3.1 2.8 2.1 2.0 1.8 2.1 2.0 2.1 2.2 2.2 2.9 1.7 1.8 2.7 2.6 2.4 2.8 3.1 3.6 3.6 3.6 3.4 3.2 3.1 2.3 3.1 3.1 2.9 2.9 2.6 2.6 2.8 2.6
5.7 5.6 5.6 5.2 5.4 4.8 3.4 3.0 3.3 2.9 3.2 3.0 2.5 2.6 2.6 2.0 2.3 2.5 2.6 2.2 2.1 2.6 2.8 2.6 3.0 2.9 2.6 2.1 2.3 3.5 3.5 3.9 3.8 3.2 3.5 3.5 3.6 3.5 3.1 2.5 3.0 2.7 2.7 2.3
2.6 3.0 2.6 2.5 1.8 1.6 1.4 2.1 2.6 2.6 2.0 2.4 3.0 2.0 1.6 1.5 1.5 2.1 3.9 4.8 3.6 3.6 3.9 3.6 3.6 4.1 4.1 4.1 4.4 3.9 3.8 3.7 3.5 3.5 3.6 3.4 3.5 3.3 3.1 3.1 3.0 2.9 2.7 2.6
1.6 1.5 0.9 1.7 2.5 2.4 2.3 2.9 2.6 1.7 1.9 1.3 0.1 0.5 1.8 3.1 2.9 3.6 3.4 4.9 5.0 4.1 4.9 4.7 4.2 2.0 3.4 3.9 4.2 4.0 4.0 3.8 3.7 3.7 3.4 3.4 3.4 3.3 2.9 2.9 2.8 2.5 2.3 2.3
2.8 3.2 2.9 2.6 3.1 3.2 2.9 3.1 2.4 2.9 2.4 2.0 2.2 3.0 4.2 4.7 5.0 5.3 5.6 5.0 5.6 4.5 5.2 4.3 2.1 1.6 1.4 3.6 3.7 3.6 3.6 3.5 3.6 3.4 3.3 3.2 3.3 3.3 3.3 3.1 2.7 2.5 2.5 2.4
3.2 3.7 3.6 3.6 3.8 4.7 4.7 4.3 4.6 4.0 2.8 3.3 2.7 2.5 5.1 5.1 5.1 5.7 5.6 3.8 3.1 4.3 4.6 4.1 3.6 1.9 2.2 3.5 3.4 3.2 3.3 3.2 3.2 3.2 3.2 0.4 3.2 2.9 3.2 2.8 3.0 2.7 2.1 1.5
4.3 4.2 4.6 4.7 5.7 6.2 5.8 5.8 5.9 5.9 5.7 6.0 5.8 5.6 5.6 5.6 6.0 6.5 6.3 6.0 4.8 5.0 5.7 1.3 1.8 1.2 4.3 4.1 3.8 3.6 3.6 3.7 3.4 3.6 3.6 3.9 3.6 3.3 3.1 2.8 2.4 2.9 2.4 2.0
5.5 6.2 6.3 6.4 7.0 7.2 7.0 7.0 7.1 7.1 6.5 5.6 5.4 4.6 4.6 4.9 5.7 6.6 6.1 4.8 6.1 4.3 6.3 5.3 4.9 4.9 4.9 4.7 4.2 3.4 3.7 4.2 3.8 4.0 3.0 3.7 3.4 3.3 2.9 3.0 2.9 3.1 2.8 2.3
6.4 6.1 6.6 6.6 6.1 6.0 6.0 5.8 6.9 7.1 6.8 6.4 6.5 5.3 5.4 5.3 5.4 5.8 3.6 6.1 6.0 5.5 5.2 5.1 4.8 4.2 5.0 4.6 4.3 3.8 3.2 3.3 1.4 3.1 2.9 3.2 2.8 3.1 2.5 2.4 2.6 2.4 1.6 0.9
Wind_Speed
8 6 3 2 4 3 5 6 5 8 15 18 16 13 14 8 12 14 12 10 17 15 13 20 15 13 13 13 14 5 6 5 3 7 8 8 8 8 7 8 9 10 11 11
3 5 4 1 6 4 7 8 11 14 14 8 9 14 7 10 14 13 14 17 18 16 18 15 15 14 13 14 15 14 13 11 11 10 10 10 8 4 1 4 5 7 9 11
2 2 4 4 2 3 2 3 3 6 6 4 12 16 15 11 14 14 13 14 14 16 17 15 15 14 16 15 15 16 17 12 11 12 11 10 9 8 9 8 7 9 7 4
2 1 1 1 6 2 2 4 8 8 7 4 10 12 15 14 13 13 13 12 13 13 14 15 14 13 12 14 17 17 15 13 14 12 11 10 10 10 10 8 8 8 10 11
2 1 5 2 6 6 6 9 10 9 8 9 13 15 9 11 13 12 11 10 11 11 12 14 15 14 15 16 18 16 14 14 13 11 11 11 11 10 9 9 10 10 10 12
2 2 1 4 9 10 4 8 14 12 11 10 10 3 3 10 10 12 12 11 11 12 12 14 14 14 14 14 16 14 12 12 9 11 13 12 12 11 9 9 10 9 11 11
2 1 5 6 15 10 2 5 10 10 11 9 5 7 11 11 11 10 11 12 11 13 14 14 12 12 13 13 13 11 10 10 11 13 13 12 11 10 9 9 10 11 11 10
2 3 3 13 5 4 2 10 8 9 10 15 12 12 12 11 10 10 11 12 12 12 12 13 13 11 12 13 10 9 10 11 12 13 11 10 12 11 11 10 11 11 11 10
3 3 7 8 8 11 12 9 10 10 10 11 10 10 9 9 9 10 12 10 12 11 11 12 12 12 12 10 7 8 10 11 12 13 12 12 13 12 9 11 9 10 9 8
2 5 7 9 9 11 12 12 12 11 9 9 11 9 10 9 8 7 9 11 9 11 11 11 12 12 11 10 9 9 9 10 10 13 13 13 10 10 10 9 9 9 9 9
1 4 3 12 10 9 11 10 11 12 12 11 10 10 9 9 8 8 9 9 9 10 11 12 12 12 11 11 8 8 8 8 9 8 10 13 14 12 11 14 12 9 9 9
3 5 3 4 8 9 10 11 11 9 11 12 10 9 9 9 9 9 9 9 11 12 12 11 11 12 11 11 9 7 7 7 7 7 7 7 8 10 24 22 25 24 22 11
3 3 8 8 8 8 9 9 10 11 9 10 10 10 11 10 9 10 10 11 11 11 11 11 12 12 13 12 11 10 9 8 6 7 7 7 7 7 6 9 18 23 22 21
8 5 8 9 5 6 7 8 10 10 10 10 10 10 10 9 9 10 10 9 9 10 10 10 11 12 11 10 10 10 10 12 8 7 7 7 7 7 6 7 7 7 14 16
8 9 8 7 7 8 6 6 8 9 9 9 9 9 9 9 10 9 8 7 8 10 10 10 11 11 10 9 10 9 7 6 7 7 7 7 6 7 7 7 7 6 6 8
2 7 7 8 7 7 7 7 7 7 8 8 9 10 9 9 10 9 10 10 10 10 10 9 11 10 9 7 7 7 8 10 8 6 6 6 6 6 6 7 7 7 7 8
2 2 5 6 6 7 8 7 7 7 8 8 8 8 8 8 9 9 9 8 8 8 9 9 8 8 8 8 7 5 5 6 7 7 6 6 6 6 6 6 6 6 7 8
7 6 7 6 5 6 7 7 7 7 7 7 7 7 7 7 7 6 5 5 6 8 10 9 8 8 8 8 7 5 5 5 6 6 5 5 5 5 5 6 6 6 6 7
7 7 7 7 6 7 7 7 7 7 6 6 7 7 6 6 5 5 5 6 7 8 9 9 10 9 9 9 6 5 5 6 6 6 5 5 6 6 6 6 6 6 5 5
8 8 8 8 8 8 8 7 7 7 6 7 7 6 6 5 4 5 7 8 7 4 7 8 8 8 8 9 8 5 5 6 6 5 5 5 5 5 6 6 6 5 5 5
6 7 7 8 8 7 6 5 5 6 4 5 6 5 4 3 3 1 3 4 5 5 6 7 6 5 5 5 5 5 5 5 5 5 5 5 5 5 5 5 4 4 4 4
4 6 7 7 7 7 4 5 6 5 6 6 5 4 4 4 4 5 4 3 3 5 4 4 5 6 5 6 5 5 5 5 5 4 4 4 4 4 4 3 3 3 2 2
4 4 4 4 4 5 4 4 3 4 4 3 3 2 2 3 2 1 2 3 3 4 4 4 5 7 7 5 4 4 5 5 4 4 4 3 3 3 2 2 2 1 1 1
3 3 3 3 4 3 3 2 2 3 3 3 3 3 1 2 3 3 3 3 4 4 4 3 3 5 5 3 4 4 3 3 3 2 3 2 2 1 2 1 1 1 1 2
3 4 4 4 3 3 4 4 4 4 4 3 3 2 2 2 1 3 2 3 3 2 3 3 3 3 2 2 2 3 2 2 2 1 1 1 1 0 0 1 1 1 2 2
4 3 3 4 2 2 3 4 4 4 4 3 2 2 2 2 2 2 2 1 1 1 1 1 0 0 0 1 1 1 1 1 1 1 1 1 1 2 2 3 3 3 2 3
2 3 3 2 2 2 2 2 2 2 3 3 2 3 3 2 1 1 1 1 1 1 1 1 2 2 1 2 2 2 2 3 3 3 3 3 3 3 4 4 5 4 4 4
Wind_Direction
85 100 107 138 240 250 223 226 247 291 288 304 322 338 316 105 75 56 26 2 38 33 34 42 36 32 35 42 42 91 113 113 149 192 199 207 213 217 210 195 203 208 207 209
70 98 68 279 282 239 243 251 254 274 285 312 3 346 287 110 85 58 38 20 32 23 41 37 34 33 38 43 45 46 48 54 46 57 56 45 40 14 204 216 219 207 227 232
115 17 347 284 138 341 277 257 279 308 314 353 50 35 25 63 69 62 47 25 22 31 35 26 32 30 44 49 53 54 41 15 46 49 46 37 34 41 42 32 28 33 17 313
98 318 117 31 299 147 251 39 8 335 307 108 104 85 46 17 64 54 45 33 22 24 30 27 27 33 45 43 53 48 48 17 25 43 43 39 39 40 33 31 38 45 43 32
111 49 310 14 40 22 356 343 10 341 328 151 136 96 61 37 49 61 51 43 39 35 28 28 23 24 37 39 51 45 39 26 13 36 43 40 39 34 32 41 49 56 49 45
78 73 269 75 337 318 265 294 6 342 337 169 189 132 92 52 41 46 47 44 45 38 38 36 25 28 39 39 51 48 33 32 6 37 45 41 35 30 32 54 62 65 59 49
114 254 279 356 331 312 286 346 5 19 39 68 69 50 100 81 49 51 45 45 49 49 43 34 29 42 45 47 41 45 37 32 31 36 43 43 44 39 40 53 64 64 63 51
162 216 281 358 341 11 355 44 49 57 72 87 87 77 67 71 64 33 43 42 48 53 48 40 32 42 46 44 42 48 52 44 42 46 44 39 50 52 47 55 57 56 57 53
347 29 10 28 45 22 41 61 42 72 68 85 87 79 78 69 49 42 43 34 41 48 45 41 42 40 48 36 60 66 65 58 53 52 52 48 51 53 54 56 59 58 56 51
335 64 48 30 53 45 47 47 39 54 67 76 86 79 73 61 55 46 46 46 44 50 45 40 36 38 35 29 45 58 65 68 67 65 60 57 54 50 49 48 52 54 57 54
341 47 138 43 36 46 52 53 60 51 54 62 74 70 75 72 63 52 50 50 51 53 49 39 33 38 29 29 46 64 69 73 75 74 75 69 59 52 55 51 51 56 51 48
46 339 87 49 41 42 52 48 45 55 66 63 73 79 74 68 62 58 53 49 50 44 43 38 37 38 32 31 41 61 69 66 62 72 72 73 80 73 56 56 54 54 52 52
62 55 90 95 68 58 64 58 57 66 62 73 66 79 78 74 63 64 56 52 50 46 38 35 34 34 28 31 45 52 54 48 56 57 61 66 68 69 78 66 58 52 49 55
37 132 94 52 70 66 79 76 73 73 68 73 78 74 83 85 74 66 59 59 59 58 48 41 39 31 23 31 48 56 62 54 59 56 57 59 59 62 61 54 50 44 43 40
39 66 89 100 77 63 85 88 72 64 67 69 70 75 74 75 66 57 51 62 67 63 51 45 41 29 20 36 51 54 62 63 66 67 63 68 68 66 63 62 59 47 39 44
28 94 92 86 73 63 62 62 76 69 69 70 78 79 81 82 78 65 52 45 51 42 31 29 36 18 20 35 55 64 66 63 64 67 63 63 64 70 68 62 57 47 39 27
145 49 34 82 82 79 74 78 89 93 94 92 91 94 90 83 74 62 52 48 53 49 40 33 22 8 19 31 46 59 66 65 60 67 59 57 59 60 62 65 66 61 53 35
81 77 62 67 96 97 89 89 98 99 95 96 90 81 71 66 68 60 46 38 42 45 33 17 26 20 25 32 39 52 61 65 66 70 72 72 74 74 75 78 77 76 73 58
74 79 73 76 85 102 103 98 91 95 96 101 93 80 75 67 64 60 52 46 38 35 16 11 23 30 31 32 41 52 64 73 74 73 80 87 81 78 79 80 81 76 72 67
78 83 90 88 89 103 101 88 97 92 90 95 92 82 74 57 52 60 59 55 33 17 5 15 24 30 30 33 37 51 58 68 77 76 77 84 85 87 88 80 81 79 76 72
88 95 94 92 81 71 76 98 104 102 92 90 97 98 90 61 56 85 85 65 24 23 32 36 32 34 38 42 55 65 73 81 82 82 80 82 83 76 75 76 75 71 71 69
72 65 59 62 73 80 85 105 107 108 107 109 112 130 134 119 108 90 58 70 65 43 55 51 46 38 49 52 59 64 71 78 82 84 81 76 74 75 71 71 79 79 79 70
94 105 110 109 106 103 95 96 113 122 127 137 145 133 88 65 47 96 111 57 74 68 70 62 55 56 52 54 58 65 73 78 81 83 83 81 80 76 77 84 101 107 109 37
122 123 128 136 134 125 125 140 140 128 130 137 142 159 81 108 86 82 101 99 89 79 74 67 67 69 66 65 64 68 71 78 85 92 99 98 84 85 84 78 70 357 307 295
146 152 153 167 196 218 192 186 177 172 161 145 125 119 114 105 52 151 127 106 103 96 90 73 71 75 71 73 69 71 78 78 75 105 131 115 100 56 237 235 258 310 310 289
169 175 194 225 292 252 220 212 233 215 189 179 164 137 117 94 107 126 136 163 184 156 146 137 49 27 15 21 351 287 275 267 245 244 250 249 256 276 269 261 256 256 282 297
161 155 161 141 65 53 40 30 334 262 212 189 171 168 178 176 178 183 159 200 246 249 250 257 256 255 284 310 312 292 280 279 255 260 256 266 268 292 297 284 269 265 269 273